• In Russia
  • List of Countries
  • For 7 days
  • Water Temperature
  • Satellite Maps
  • Weather Map
  • Weather Widgets
  • user-avatar
    Login

    Hourly Weather Criuleni

    Today, 21 February, Thursday

    Time Temperature Precipitation Wind Pressure Humidity
    00:00 +4°C° 0 mm 3 mps 760 mmHg 77%
    01:00 +3°C° 0 mm 4 mps 760 mmHg 78%
    02:00 +3°C° 0 mm 3 mps 759 mmHg 81%
    03:00 +2°C° 0 mm 3 mps 759 mmHg 81%
    04:00 +1°C° 0 mm 4 mps 760 mmHg 80%
    05:00 +1°C° 0 mm 4 mps 760 mmHg 80%
    06:00 +1°C° 0 mm 5 mps 760 mmHg 79%
    07:00 +1°C° 0 mm 5 mps 760 mmHg 79%
    08:00 +2°C° 0 mm 6 mps 760 mmHg 77%
    09:00 +3°C° 0 mm 6 mps 760 mmHg 70%
    10:00 +4°C° 0 mm 7 mps 760 mmHg 64%
    11:00 +5°C° 0 mm 8 mps 761 mmHg 57%
    12:00 +5°C° 0 mm 8 mps 760 mmHg 56%
    13:00 +6°C° 0 mm 8 mps 760 mmHg 54%
    14:00 +6°C° 0 mm 8 mps 760 mmHg 53%
    15:00 +6°C° 0 mm 7 mps 760 mmHg 54%
    16:00 +5°C° 0 mm 7 mps 760 mmHg 56%
    17:00 +5°C° 0 mm 6 mps 760 mmHg 57%
    18:00 +5°C° 0 mm 5 mps 760 mmHg 62%
    19:00 +5°C° 0 mm 4 mps 760 mmHg 67%
    20:00 +4°C° 0 mm 3 mps 761 mmHg 72%
    21:00 +4°C° 0 mm 3 mps 760 mmHg 74%
    22:00 +4°C° 0 mm 3 mps 760 mmHg 76%
    23:00 +5°C° 0 mm 3 mps 760 mmHg 78%

    Tomorrow, 22 February, Friday

    Time Temperature Precipitation Wind Pressure Humidity
    00:00 +4°C° 0.2 mm 3 mps 760 mmHg 78%
    01:00 +4°C° 0.2 mm 3 mps 760 mmHg 78%
    02:00 +4°C° 0.2 mm 4 mps 759 mmHg 77%
    03:00 +4°C° 0.5 mm 3 mps 759 mmHg 77%
    04:00 +4°C° 0.5 mm 3 mps 758 mmHg 76%
    05:00 +4°C° 0.5 mm 3 mps 758 mmHg 76%
    06:00 +4°C° 0.7 mm 3 mps 758 mmHg 79%
    07:00 +4°C° 0.7 mm 2 mps 758 mmHg 81%
    08:00 +4°C° 0.7 mm 2 mps 757 mmHg 84%
    09:00 0°C° 0.8 mm 4 mps 758 mmHg 86%
    10:00 -1°C° 0.8 mm 5 mps 758 mmHg 87%
    11:00 -3°C° 0.8 mm 7 mps 758 mmHg 89%
    12:00 -4°C° 0.6 mm 7 mps 759 mmHg 87%
    13:00 -4°C° 0.6 mm 7 mps 760 mmHg 85%
    14:00 -4°C° 0.6 mm 7 mps 760 mmHg 83%
    15:00 -6°C° 0.2 mm 7 mps 761 mmHg 79%
    16:00 -6°C° 0.2 mm 7 mps 762 mmHg 75%
    17:00 -7°C° 0.2 mm 7 mps 762 mmHg 72%
    18:00 -7°C° 0 mm 7 mps 763 mmHg 70%
    19:00 -8°C° 0 mm 6 mps 764 mmHg 69%
    20:00 -9°C° 0 mm 6 mps 765 mmHg 68%
    21:00 -9°C° 0 mm 6 mps 765 mmHg 69%
    22:00 -10°C° 0 mm 6 mps 766 mmHg 69%
    23:00 -10°C° 0 mm 5 mps 766 mmHg 70%

    Day after tomorrow, 23 February, Saturday

    Time Temperature Precipitation Wind Pressure Humidity
    00:00 -10°C° 0 mm 5 mps 766 mmHg 70%
    01:00 -10°C° 0 mm 6 mps 766 mmHg 69%
    02:00 -10°C° 0 mm 6 mps 767 mmHg 69%
    03:00 -10°C° 0 mm 6 mps 767 mmHg 69%
    04:00 -10°C° 0 mm 6 mps 767 mmHg 69%
    05:00 -10°C° 0 mm 6 mps 767 mmHg 69%
    06:00 -10°C° 0 mm 6 mps 768 mmHg 68%
    07:00 -11°C° 0 mm 7 mps 769 mmHg 68%
    08:00 -9°C° 0 mm 7 mps 769 mmHg 68%
    09:00 -9°C° 0.1 mm 7 mps 769 mmHg 67%
    10:00 -9°C° 0.1 mm 7 mps 770 mmHg 67%
    11:00 -8°C° 0.1 mm 7 mps 770 mmHg 66%
    12:00 -8°C° 0.1 mm 7 mps 770 mmHg 66%
    13:00 -8°C° 0.1 mm 7 mps 770 mmHg 66%
    14:00 -8°C° 0.1 mm 7 mps 770 mmHg 67%
    15:00 -8°C° 0.1 mm 7 mps 770 mmHg 68%
    16:00 -8°C° 0.1 mm 7 mps 771 mmHg 69%
    17:00 -8°C° 0.1 mm 6 mps 771 mmHg 70%
    18:00 -8°C° 0 mm 6 mps 771 mmHg 72%
    19:00 -8°C° 0 mm 5 mps 772 mmHg 73%
    20:00 -8°C° 0 mm 5 mps 772 mmHg 75%
    21:00 -8°C° 0 mm 5 mps 772 mmHg 75%
    22:00 -8°C° 0 mm 5 mps 772 mmHg 75%
    23:00 -10°C° 0 mm 5 mps 772 mmHg 76%

    24 February, Sunday

    Time Temperature Precipitation Wind Pressure Humidity
    00:00 -9°C° 0 mm 4 mps 772 mmHg 77%
    01:00 -9°C° 0 mm 4 mps 772 mmHg 78%
    02:00 -9°C° 0 mm 4 mps 772 mmHg 79%
    03:00 -9°C° 0 mm 4 mps 772 mmHg 80%
    04:00 -9°C° 0 mm 4 mps 772 mmHg 80%
    05:00 -9°C° 0 mm 4 mps 772 mmHg 80%
    06:00 -9°C° 0 mm 4 mps 772 mmHg 79%
    07:00 -9°C° 0 mm 4 mps 772 mmHg 78%
    08:00 -9°C° 0 mm 4 mps 773 mmHg 77%
    09:00 -8°C° 0 mm 4 mps 773 mmHg 75%
    10:00 -7°C° 0 mm 4 mps 773 mmHg 73%
    11:00 -7°C° 0 mm 4 mps 773 mmHg 71%
    12:00 -5°C° 0 mm 4 mps 773 mmHg 69%
    13:00 -5°C° 0 mm 4 mps 772 mmHg 67%
    14:00 -4°C° 0 mm 3 mps 772 mmHg 65%
    15:00 -4°C° 0 mm 3 mps 772 mmHg 66%
    16:00 -4°C° 0 mm 3 mps 772 mmHg 67%
    17:00 -3°C° 0 mm 2 mps 772 mmHg 68%
    18:00 -3°C° 0 mm 2 mps 772 mmHg 70%
    19:00 -4°C° 0 mm 2 mps 773 mmHg 72%
    20:00 -4°C° 0 mm 2 mps 773 mmHg 74%
    21:00 -2°C° 0 mm 1 mps 773 mmHg 74%
    22:00 -2°C° 0 mm 1 mps 773 mmHg 73%
    23:00 -2°C° 0 mm 1 mps 773 mmHg 73%

    25 February, Monday

    Time Temperature Precipitation Wind Pressure Humidity
    00:00 -2°C° 0 mm 1 mps 773 mmHg 73%
    01:00 -4°C° 0 mm 2 mps 773 mmHg 73%
    02:00 -5°C° 0 mm 2 mps 773 mmHg 74%
    03:00 -5°C° 0 mm 2 mps 773 mmHg 75%
    04:00 -5°C° 0 mm 2 mps 772 mmHg 76%
    05:00 -5°C° 0 mm 2 mps 772 mmHg 77%
    06:00 -4°C° 0 mm 2 mps 772 mmHg 76%
    07:00 -4°C° 0 mm 2 mps 772 mmHg 76%
    08:00 -4°C° 0 mm 2 mps 772 mmHg 76%
    09:00 -4°C° 0 mm 3 mps 771 mmHg 72%
    10:00 -1°C° 0 mm 3 mps 771 mmHg 68%
    11:00 -1°C° 0 mm 4 mps 770 mmHg 64%
    12:00 0°C° 0 mm 4 mps 770 mmHg 61%
    13:00 +1°C° 0 mm 4 mps 769 mmHg 59%
    14:00 +2°C° 0 mm 5 mps 769 mmHg 56%
    15:00 +1°C° 0 mm 4 mps 768 mmHg 58%
    16:00 +1°C° 0 mm 4 mps 767 mmHg 61%
    17:00 +1°C° 0 mm 4 mps 766 mmHg 63%
    18:00 0°C° 0 mm 4 mps 766 mmHg 66%
    19:00 0°C° 0 mm 4 mps 766 mmHg 69%
    20:00 -1°C° 0 mm 4 mps 766 mmHg 71%
    21:00 -1°C° 0 mm 4 mps 765 mmHg 76%
    22:00 -1°C° 0 mm 4 mps 765 mmHg 80%
    23:00 -1°C° 0 mm 4 mps 765 mmHg 84%

    26 February, Tuesday

    Time Temperature Precipitation Wind Pressure Humidity
    00:00 -1°C° 0 mm 5 mps 764 mmHg 86%
    01:00 -1°C° 0 mm 5 mps 764 mmHg 88%
    02:00 -1°C° 0 mm 5 mps 764 mmHg 90%
    03:00 -2°C° 0 mm 6 mps 763 mmHg 89%
    04:00 -2°C° 0 mm 6 mps 763 mmHg 87%
    05:00 -2°C° 0 mm 6 mps 763 mmHg 86%
    06:00 -2°C° 0 mm 6 mps 762 mmHg 86%
    07:00 -2°C° 0 mm 6 mps 762 mmHg 87%
    08:00 -2°C° 0 mm 6 mps 762 mmHg 88%
    09:00 -1°C° 0 mm 6 mps 761 mmHg 82%
    10:00 +1°C° 0 mm 6 mps 761 mmHg 77%
    11:00 +2°C° 0 mm 6 mps 760 mmHg 71%
    12:00 +3°C° 0 mm 6 mps 759 mmHg 71%
    13:00 +3°C° 0 mm 6 mps 758 mmHg 72%
    14:00 +3°C° 0 mm 6 mps 757 mmHg 72%
    15:00 +3°C° 0 mm 5 mps 756 mmHg 75%
    16:00 +4°C° 0 mm 4 mps 755 mmHg 77%
    17:00 +4°C° 0 mm 4 mps 754 mmHg 80%
    18:00 +3°C° 0 mm 4 mps 754 mmHg 80%
    19:00 +3°C° 0 mm 4 mps 753 mmHg 80%
    20:00 +3°C° 0 mm 4 mps 752 mmHg 81%
    21:00 +2°C° 0 mm 6 mps 752 mmHg 81%
    22:00 +2°C° 0 mm 7 mps 751 mmHg 82%
    23:00 +1°C° 0 mm 8 mps 750 mmHg 82%
    Show more